Location: Albany
(35.0170°S, 117.8920°E)
Time: 02:07:03
(UTC+08:00)

Explorer 7 - Pass Details

Date: 25 January 2021
Orbit: 484 x 677 km, 50.3° (Epoch: 01 March)

Event Time Altitude Azimuth Distance (km) Brightness Sun altitude
Rises 23:16:19 0° 237° (WSW) 2,837 11.1 -34.0°
Reaches altitude 10° 23:18:46 10° 244° (WSW) 1,894 10.0 -34.2°
Enters shadow 23:18:56 11° 244° (WSW) 1,833 9.9 -34.2°
Maximum altitude 23:22:48 40° 313° (NW) 826 - -34.4°
Drops below altitude 10° 23:26:35 10° 22° (NNE) 1,767 - -34.7°
Sets 23:28:48 0° 30° (NNE) 2,620 - -34.8°
